Theta_e
313 313 313 313 313 313 313 314 315 315 316 317 317 317 316 316 317 325 326 326 333 348 349 353 354 348 343 350 348 347 361 363 355 356 349 346 348 352 349 348 350 351 350 347 347
313 314 314 314 314 314 314 314 315 316 316 317 317 317 316 316 320 327 328 331 334 348 354 354 347 346 349 349 352 353 360 361 347 348 351 346 346 346 353 353 355 352 349 347 346
314 314 314 315 315 315 315 315 315 315 316 317 317 317 316 316 334 330 326 328 321 339 358 351 345 350 353 352 356 352 355 353 354 349 349 347 350 347 349 357 355 354 351 347 345
314 314 314 315 315 315 315 315 315 315 316 317 317 317 316 324 344 335 329 324 319 337 352 355 350 352 355 356 353 353 353 351 353 350 349 348 349 349 350 353 350 350 348 347 345
313 313 314 315 315 316 316 316 315 315 316 317 318 317 320 334 327 334 324 318 325 343 353 355 354 353 355 352 351 354 356 354 353 352 348 347 348 347 350 349 347 348 348 347 345
314 314 314 314 315 316 316 316 316 316 317 319 320 318 325 326 338 326 318 320 340 347 354 355 353 340 340 344 349 351 352 351 350 351 348 348 345 345 348 346 345 344 350 348 347
316 315 316 316 316 316 316 316 316 316 321 322 322 322 329 327 338 322 333 333 343 344 349 348 341 338 337 340 345 347 353 352 353 352 349 350 347 346 346 346 347 345 343 344 348
320 320 319 320 319 317 316 316 316 321 318 319 319 328 328 326 338 337 335 339 341 345 346 342 340 338 341 342 344 348 348 357 354 354 345 351 359 346 344 346 346 346 344 344 341
320 320 320 321 320 317 316 316 318 320 317 317 320 331 329 331 334 340 339 339 343 345 341 342 340 337 342 344 343 345 349 358 359 350 342 346 351 346 342 343 344 344 343 342 340
319 321 320 321 320 317 316 318 323 323 329 327 327 332 329 331 331 333 340 342 341 340 341 341 339 342 342 346 348 349 344 355 360 347 347 346 349 344 347 343 344 341 340 339 339
320 321 320 321 320 318 317 326 327 329 329 328 326 331 328 328 329 334 338 341 341 337 339 336 339 342 343 341 344 345 347 349 357 351 360 355 356 351 349 346 345 345 343 340 339
320 321 320 318 318 317 316 325 331 328 328 330 329 329 326 328 330 334 337 339 340 338 336 333 336 341 343 341 343 343 345 351 353 351 354 355 358 353 351 349 346 346 346 343 340
322 322 319 317 317 316 318 326 329 327 326 329 329 327 327 328 331 334 334 336 335 333 333 333 342 340 341 342 344 343 334 338 351 349 350 356 355 358 354 353 355 349 346 345 343
323 322 318 316 321 324 325 328 326 327 329 331 327 328 327 327 326 330 334 331 329 327 328 331 337 343 343 343 334 328 329 330 346 344 349 346 355 351 350 350 356 355 346 344 344
322 321 318 315 321 325 329 326 326 327 338 329 326 327 325 324 326 326 332 330 329 328 329 328 331 338 343 336 336 334 332 330 330 336 345 352 350 352 352 355 351 353 350 344 342
320 322 317 318 319 326 326 327 327 331 338 326 325 324 325 324 324 327 328 327 327 327 328 330 331 333 333 332 334 332 331 329 328 340 351 350 349 354 355 351 350 348 347 350 344
322 320 317 327 330 327 327 328 333 335 334 325 325 325 324 325 326 326 326 325 326 328 330 331 330 332 331 330 330 331 327 329 333 343 352 345 347 348 347 351 353 349 347 347 345
323 323 322 321 327 328 328 333 342 337 334 327 325 324 325 324 326 327 326 325 324 325 326 327 329 329 330 329 330 330 330 330 332 347 353 352 361 357 347 350 352 347 347 348 346
328 326 326 333 323 326 331 341 342 337 331 325 324 324 325 325 328 326 325 324 324 323 327 325 328 328 328 329 329 328 328 328 327 345 354 355 352 348 348 352 351 350 345 346 348
328 331 332 335 329 329 336 339 331 331 335 336 327 326 326 326 328 326 326 329 333 333 330 330 329 327 327 327 326 328 326 324 325 347 352 349 352 353 351 354 351 352 347 344 349
331 338 333 332 331 335 341 336 332 330 334 336 337 338 335 328 327 327 332 333 332 332 332 330 329 328 328 326 323 322 322 324 323 339 351 354 351 352 349 351 352 349 341 336 336
334 344 333 333 337 340 338 332 329 332 333 334 336 336 337 332 334 337 337 335 332 332 333 332 326 325 327 327 325 327 325 325 328 338 346 349 355 347 346 353 343 342 345 342 336
338 341 333 333 339 337 333 332 332 332 333 334 335 335 333 333 338 338 337 333 331 333 333 331 331 327 332 334 333 332 329 329 326 334 349 357 362 349 345 341 356 340 340 342 343
340 344 337 335 335 335 337 335 335 333 333 333 335 333 334 335 334 335 336 334 333 333 340 330 327 326 333 337 333 334 334 330 329 336 347 357 347 348 347 343 362 368 365 365 367
342 342 338 341 336 335 334 336 337 336 335 336 337 334 334 336 340 341 340 335 333 333 334 332 331 332 335 334 333 336 336 334 332 333 334 352 348 348 342 361 365 363 365 365 363
335 337 336 339 333 334 335 339 336 334 335 334 333 332 332 339 337 339 337 336 338 335 336 331 332 334 337 335 336 333 335 335 334 339 361 359 359 350 355 358 359 363 362 360 358
331 331 337 338 339 338 338 336 335 335 335 332 329 329 335 334 331 331 330 330 331 333 330 332 331 335 336 336 336 337 338 337 337 346 358 361 354 349 350 352 354 358 359 355 353
Wind_Speed
19 20 20 19 20 19 19 19 18 17 16 15 15 15 16 17 15 7 5 7 12 18 12 12 6 25 23 6 3 2 1 3 5 4 4 12 13 13 19 17 7 6 22 22 29
20 20 20 21 20 20 18 19 18 16 16 15 15 14 16 17 13 10 7 13 10 21 18 16 10 9 5 4 2 1 4 5 5 2 5 13 9 14 13 14 21 22 23 30 25
21 21 21 21 21 21 19 18 18 16 16 15 14 14 13 12 4 5 16 14 9 17 21 19 23 20 2 4 8 3 7 5 8 11 6 10 13 5 15 23 25 23 21 24 28
22 22 22 22 21 20 20 18 17 16 16 15 14 12 10 3 1 1 17 13 10 12 12 17 13 8 4 6 10 4 4 8 6 7 8 11 13 5 18 25 25 25 21 23 21
23 22 22 22 21 20 19 18 15 15 16 16 13 10 2 3 7 6 15 15 14 13 16 13 11 8 5 10 10 19 14 16 11 15 10 11 13 15 21 23 23 24 23 21 16
24 24 23 22 21 20 18 17 15 15 17 14 10 4 2 5 7 8 15 17 14 15 11 18 12 4 7 7 17 21 12 11 4 4 8 13 14 14 17 17 20 17 23 20 19
24 23 23 23 21 19 17 15 14 15 14 10 5 2 5 10 6 11 14 17 17 16 12 21 20 7 10 9 15 16 13 9 10 3 6 2 13 14 19 17 14 13 8 15 22
26 24 23 22 19 17 15 13 13 11 9 7 3 3 7 12 14 10 16 13 16 22 25 16 16 7 4 6 4 10 6 5 10 7 9 3 5 13 18 19 17 14 11 8 6
24 22 21 20 16 14 12 11 9 5 5 1 3 3 7 8 11 15 18 14 21 22 15 13 7 6 2 4 4 7 6 4 7 10 5 6 3 6 14 18 17 17 13 11 8
23 22 20 18 14 12 10 7 4 4 3 2 11 3 8 10 10 19 19 17 10 8 7 7 4 3 5 5 3 5 2 16 12 3 15 9 6 11 12 19 18 17 14 11 10
23 22 19 13 10 10 8 2 1 2 6 10 8 6 5 22 18 14 19 14 10 6 6 8 2 6 15 7 12 15 16 14 19 15 12 9 14 25 18 19 18 16 16 13 12
23 18 13 8 7 8 4 4 8 7 6 20 18 17 26 17 8 10 16 7 5 7 9 7 7 14 13 11 13 16 17 22 19 22 17 16 22 25 25 11 17 16 19 18 15
20 13 9 6 7 8 9 12 11 12 3 7 11 8 3 2 6 9 11 8 8 9 11 8 4 7 18 19 16 16 9 7 23 11 25 22 4 11 9 13 13 13 18 20 19
14 8 5 3 5 3 6 7 7 10 3 6 7 5 8 5 9 11 17 8 7 12 11 9 9 11 15 14 9 5 6 8 12 9 6 7 3 4 4 2 21 21 15 15 17
11 6 3 7 10 4 6 3 6 6 3 15 10 7 9 9 6 10 21 8 11 11 2 13 10 18 13 8 7 6 6 5 7 4 6 5 4 5 6 8 8 10 5 10 11
10 5 2 3 8 5 5 7 7 1 4 8 6 7 8 9 10 8 7 7 8 9 12 11 7 4 2 6 7 5 7 9 7 6 4 2 2 5 4 4 9 4 6 10 9
9 4 6 6 5 7 8 6 2 3 2 12 10 8 9 9 9 9 8 7 6 3 7 10 9 5 3 5 10 6 4 5 5 4 2 7 6 7 2 2 11 20 11 13 10
11 9 9 18 10 11 14 3 2 9 5 5 9 10 10 11 8 8 8 7 10 9 10 6 10 9 5 7 7 7 4 4 4 4 6 4 2 5 6 1 11 22 17 17 13
13 12 8 15 14 10 2 3 6 5 6 9 11 8 9 12 2 8 10 11 10 11 6 4 12 8 8 5 8 11 5 6 7 7 5 1 3 11 12 13 22 26 17 17 18
7 7 17 11 13 11 2 5 4 9 9 12 5 10 9 9 5 7 10 3 3 6 7 6 6 3 4 2 5 4 3 6 4 5 3 3 5 6 2 6 2 10 7 9 11
5 3 13 18 14 2 3 3 6 5 13 10 12 6 7 7 8 7 6 7 7 7 6 5 0 9 5 5 7 5 5 4 2 8 5 4 4 8 7 3 12 15 25 9 15
7 3 22 18 2 4 3 8 9 13 12 8 14 2 6 3 7 7 10 6 6 5 5 6 2 6 9 10 9 6 8 5 4 3 5 5 3 16 12 9 8 4 14 18 18
3 4 17 15 3 6 1 2 3 9 10 11 5 11 8 8 7 10 4 4 4 4 3 5 5 5 9 12 17 5 9 5 3 5 4 5 5 12 16 16 9 9 7 8 11
3 4 2 1 3 10 7 6 4 4 6 7 5 7 7 8 3 4 8 6 6 4 3 5 4 2 3 9 12 7 14 7 3 5 2 9 15 12 17 6 7 7 6 5 14
3 4 5 5 7 8 9 8 12 10 11 13 10 15 10 8 10 13 10 5 4 1 2 1 5 7 5 5 4 3 6 17 4 3 7 23 18 19 7 4 2 8 8 12 16
4 4 6 8 10 3 7 8 13 11 9 9 10 13 10 7 8 8 10 8 5 8 7 9 6 9 8 7 10 7 9 10 6 10 23 20 9 11 11 8 7 7 6 9 12
17 11 3 8 9 5 6 8 8 8 5 12 9 6 9 10 8 8 8 7 7 6 8 7 5 6 7 10 12 6 1 12 7 17 19 13 12 7 8 8 7 8 8 8 10
Wind_Direction
338 336 335 333 332 332 331 330 331 332 330 330 330 328 328 328 320 299 224 239 165 151 135 151 177 94 78 146 246 6 127 251 280 55 168 92 98 121 128 135 160 111 143 141 150
343 339 336 334 330 328 328 327 327 327 327 326 324 326 329 333 326 253 232 151 150 156 148 139 98 71 60 121 202 154 299 242 262 174 149 122 130 134 136 135 111 115 133 146 156
340 337 334 332 330 329 329 326 325 325 322 321 320 322 328 340 292 229 199 193 193 181 166 155 117 102 203 150 193 195 195 231 274 241 215 119 139 211 116 123 137 144 153 153 157
334 331 329 327 325 324 321 322 322 321 318 316 315 317 324 1 41 181 177 181 183 193 199 205 177 136 178 184 210 225 232 202 265 267 214 144 159 165 132 143 145 149 158 161 165
327 326 324 323 324 321 319 319 317 316 313 310 309 312 340 221 251 203 175 171 179 193 225 230 197 186 209 200 177 226 180 206 232 217 206 124 115 103 122 137 140 151 158 167 171
326 324 322 320 319 318 316 315 313 312 308 303 302 299 291 248 180 176 173 171 184 199 243 240 250 338 305 240 186 186 150 142 138 244 133 118 128 114 124 128 137 150 167 175 178
322 319 318 316 315 313 313 311 307 309 305 299 292 117 263 237 206 167 176 187 183 212 243 270 342 6 316 329 34 349 134 148 173 139 34 38 116 127 132 136 143 154 172 178 189
318 316 315 314 314 311 310 305 306 305 304 293 197 148 254 238 187 168 187 208 220 233 249 301 313 310 18 357 47 183 269 148 140 99 24 46 92 143 142 145 155 163 185 184 186
319 318 315 312 311 306 304 302 303 297 330 283 155 214 267 174 204 199 192 218 227 233 262 271 286 265 2 76 6 225 178 216 111 110 106 57 222 249 156 156 166 172 180 176 179
322 319 315 311 307 304 303 306 281 291 307 307 266 273 263 220 204 223 199 222 245 238 260 235 251 356 310 77 235 288 334 164 140 116 53 5 317 282 231 168 173 172 163 166 166
322 318 314 311 305 303 324 352 332 276 238 207 191 232 167 215 192 208 203 213 250 293 270 275 188 196 244 228 241 254 254 226 127 150 92 326 311 295 284 183 175 169 164 163 167
325 321 320 315 297 293 309 256 279 323 290 227 251 261 272 174 176 192 189 204 183 258 269 285 259 224 246 263 264 276 292 89 138 162 97 139 267 277 266 190 173 177 170 166 169
328 326 321 312 296 279 218 236 327 312 268 243 211 226 206 109 192 211 171 209 229 222 253 246 161 28 276 275 273 263 217 124 156 186 109 148 167 290 223 111 127 246 178 168 172
338 331 315 304 315 299 235 304 288 306 297 213 199 215 210 199 251 215 179 182 225 233 233 242 191 185 249 249 275 45 34 6 154 150 146 216 208 181 248 338 163 236 187 173 170
347 331 287 235 312 281 358 352 322 305 282 151 187 208 189 185 197 207 168 213 250 263 229 241 243 226 217 263 317 273 3 346 297 79 99 15 80 314 30 7 0 325 172 181 175
349 326 273 306 275 280 337 302 264 299 233 159 141 174 159 212 258 133 157 213 255 278 286 267 269 327 292 320 285 355 318 293 271 136 56 93 46 350 53 305 301 285 342 289 197
334 320 231 224 232 340 302 287 290 231 212 154 160 176 199 214 211 155 175 210 227 224 266 273 250 238 152 305 318 293 301 316 356 62 181 151 45 226 213 284 312 299 297 293 222
304 288 270 250 242 287 289 295 231 278 279 106 153 184 194 213 208 162 166 217 237 248 275 261 276 207 199 185 235 286 255 170 325 146 138 32 325 270 34 115 249 268 270 270 245
315 297 248 266 224 244 295 271 219 221 25 135 163 187 213 215 178 151 189 207 221 214 222 341 331 148 180 179 175 271 323 256 91 32 69 188 250 307 102 157 250 247 256 257 230
324 262 250 222 167 215 221 240 347 24 44 348 177 186 190 178 193 183 198 185 110 66 47 318 337 229 164 43 305 232 273 348 3 127 82 310 284 251 21 211 145 63 72 2 347
327 306 121 148 163 223 247 303 18 23 90 36 333 358 355 152 203 217 150 51 44 25 24 343 288 292 101 188 213 281 286 268 179 132 142 173 279 349 292 87 139 131 109 275 276
310 301 154 161 199 216 255 359 13 2 95 143 224 271 4 266 83 58 61 48 13 358 358 347 256 318 259 274 202 225 221 203 126 350 93 126 340 341 351 110 90 130 170 222 224
288 257 168 193 269 315 157 142 54 11 11 16 133 160 264 356 81 114 82 90 12 38 84 340 326 345 338 1 334 10 313 357 15 101 182 116 304 293 327 342 137 167 223 256 300
287 307 332 323 305 11 10 26 74 62 54 13 358 342 335 354 46 51 144 142 136 55 135 137 254 204 175 186 231 330 341 296 60 86 102 130 169 203 257 286 338 44 87 96 57
327 3 3 334 360 2 357 345 30 28 14 23 19 20 21 11 13 14 14 150 136 156 318 300 316 353 324 25 232 35 11 354 68 21 112 157 160 203 178 146 30 31 25 41 41
10 356 340 295 322 313 20 17 36 27 360 6 24 0 359 40 14 347 359 7 33 353 350 346 335 4 329 131 254 234 132 200 347 67 107 125 134 184 177 144 110 112 61 52 59
358 332 267 288 305 24 29 19 12 51 9 17 19 353 27 358 338 308 305 303 302 341 324 334 348 9 305 346 336 69 11 23 35 62 127 129 152 142 95 80 90 94 86 80 89